DELTA 1 DEB, 7071

Orbit data source: Space-Track

DELTA 1 DEB, 7071 is space debris in SSO originally from a launch on Tue, 06 Nov 1973 UTC launched from the Air Force Western Test Range (AFWTR). Debris objects in space refer to the collection of defunct objects orbiting the Earth. Examples of debris include non-operational satellites, rocket bodies, and fragments generated from explosions, collisions, or faulty payload assembly.

Loading next visibility...
Identifier
7071, 1973-086BP
Orbit
SSO
Country
Flag of USUS
Related business
Manufacturer
Unknown
Mission
Spacecraft
Bus & Motor
Unknown
Mass
Unknown
Launch date (UTC)
1973-11-06 (53 years ago)
Launch vehicle
Unknown
Launch site
Air Force Western Test Range (AFWTR)
Object type
Payload
Rocket body
Debris
Shape & HBR
Unknown shape, 0.4 m
Radar Cross Section
Medium (>0.1 m² and <1 m²)

Expand to show TLE details & history
Last TLE update: 2 days ago

TLE from 2 days ago
0 DELTA 1 DEB
1  7071U 73086BP  26171.45714603 -.00000003  00000-0  29013-3 0  9998
2  7071 101.6245 153.6222 0007216  85.7414  34.5100 12.41170459383520
Epoch: 2026-06-20T10:58Z
TLE epoch observation values (Epoch: 2026-06-20T10:58:17.416Z)
Latitude
57.83976°
Longitude
-80.6214°
Altitude
1,506.504 km
Speed
7.119 km/s
True Right ascension
23h 30m 29s
True Declination
57° 41' 58"
Sunlit
Object was in daylight at epoch
Visualization orbit readout
Latitude
Unknown
Longitude
Unknown
Altitude
Unknown
Speed
Unknown
Apparent Right ascension
Unknown
Apparent Declination
Unknown
Sunlit
N/A
Visualization observer readout
Local Sidereal Time
23:20:05
Azimuth
Unknown
Elevation
Unknown
Doppler factor
Unknown
Orbital elements
Apogee altitude
1,504.881 km
Perigee altitude
1,493.512 km
Semi-major axis
7,877.334 km
Eccentricity
0.00072
Inclination
101.6245°
RAAN
153.6222°
Arg. of periapsis
85.7414°
True anomaly
34.55688°
Mean anomaly
34.51°
Eccentric anomaly
34.53344°
Mean motion
3.10438 °/min
Orbital period
115.97 mins
BSTAR
0.00029013
Loading maneuver chart data...
Computing Atmospheric mass density...
Loading historical data...
Loading historical data...
Loading historical data...
Loading historical data...
Loading historical data...
Loading historical data...
Loading historical data...

Documentation

Showing up to 5 results
|